SL-3 R/B

Satellite information

Favourite Embed

Satellite Type and Status

ROCKET BODYIN ORBIT

Key statistics

Satellite SL-3 R/B at a glance.

Uptime

17739

Days in orbit

Revolutions

≈ 14.1

Per day

Orbit

LEO

Low Earth Orbit

Inclination

81.3

Latest

Satellite identification and parameters

Extended collection of information and parameters for SL-3 R/B.

Object identification

Identified? True

Debris? False

Object name: SL-3 R/B

International designator: 1976-102B

Object number (NORAD): 9482

Object ID (CCSDS): 9482

Country: COMMONWEALTH OF INDEPENDENT STATES (CIS)

Current information (Y/N): Y

RCS size: LARGE

Orbital parameters

Period: 102.279 minutes

Inclination: 81.2575 deg

SMA: 7244.677 km

Apoapsis: 926.13 km

Periapsis: 806.955 km

RAAN: 200.7534 deg

Eccentricy: 0.008225

Argument of periapsis: 303.7681 deg

Mean anomaly: 55.5672 deg

Mean motion: 14.07907702 rev/day

Mean motion (dot): 0.00000017 rev/day2

B* drag term: 0.0000033304 1/REarth

Two-line elements (TLE)

Creation date: May 10, 2025, 2:32 a.m.

Reference frame: TEME

Reference center: EARTH

Epoch: May 9, 2025, 4:52 p.m. UTC

TLE line 0: 0 SL-3 R/B

TLE line 1: 1 09482U 76102B 25129.70284477 .00000017 00000-0 33304-5 0 9993

TLE line 2: 2 09482 81.2575 200.7534 0082250 303.7681 55.5672 14.07907702493248

Live tracking on map

Real-time ground track for satellite SL-3 R/B.

In-orbit conjunctions

A list of the most updated potential collisions computed for object SL-3 R/B.

Target Orbit TCA Probability of collision Miss distance Type
DMSP 5D-2 F13 DEB SSO 2024-12-31 15:02:44 0.0001652415 251.0 (m) DEBRIS

Associated space launch

The Meteor-1 series was the first series of Soviet meteorological satellites.

SL-3 R/B was lifted into orbit during the mission ‘Vostok 8A92M | Meteor-1 26 (35L)’, on board a Vostok 8A92M space rocket.

The launch took place on Oct. 15, 1976, 10:59 p.m. from 43/3 (43L).

For more information about the launch, click the button.

Launch to space Vostok 8A92M | Meteor-1 26 (35L)
Vostok 8A92M | Meteor-1 26 (35L)

Agency: N/A

Status: Launch Successful

Launch date: Oct. 15, 1976, 10:59 p.m. UTC

Rocket: Vostok 8A92M

Launch pad: 43/3 (43L)

Location: Plesetsk Cosmodrome, Russian Federation

...

Latest news about this satellite

There are no fresh news available about this satellite. Check back as we update our databases every day.


Newsletter sign-up

Weekly statistics, charts and insights to help you stay on top of the space industry.